DLH1VR EDDF-EDDH

Flight info

Callsign DLH1VR
Flight time 0h 38m
Altitude 33000
Route MARUN8M/25C MARUN Y150 TOLGI DCT SAS/N0445F320 P605 NOLGO NOLGO3P
Aircraft A320/M-SDE3FGHIRWY/LB1

Departure

Time 2026-05-04 16:05
Airport Frankfurt Main Airport (EDDF)

Arrival

Time 2026-05-04 16:43
Airport Hamburg Helmut Schmidt Airport (EDDH)
Time Latitude Longitude Altitude Speed Heading
2026-05-04 15:36 50.04431 8.56329 356 ft 0 kts 167°
2026-05-04 15:53 50.04450 8.56322 363 ft 4 kts 168°
2026-05-04 15:53 50.04471 8.56314 362 ft 4 kts 173°
2026-05-04 15:53 50.04495 8.56319 356 ft 4 kts 222°
2026-05-04 15:54 50.04509 8.56352 361 ft 4 kts 250°
2026-05-04 15:54 50.04514 8.56373 363 ft 0 kts 249°
2026-05-04 15:57 50.04513 8.56370 356 ft 2 kts 250°
2026-05-04 15:57 50.04500 8.56308 356 ft 10 kts 251°
2026-05-04 15:57 50.04467 8.56176 363 ft 16 kts 247°
2026-05-04 15:58 50.04406 8.56032 358 ft 17 kts 191°
2026-05-04 15:58 50.04303 8.56099 358 ft 16 kts 121°
2026-05-04 15:58 50.04235 8.56243 359 ft 19 kts 157°
2026-05-04 15:58 50.04153 8.56353 361 ft 17 kts 92°
2026-05-04 15:59 50.04192 8.56550 359 ft 20 kts 71°
2026-05-04 15:59 50.04233 8.56719 359 ft 11 kts 68°
2026-05-04 15:59 50.04268 8.56857 361 ft 16 kts 70°
2026-05-04 15:59 50.04308 8.57029 361 ft 15 kts 69°
2026-05-04 16:00 50.04339 8.57158 361 ft 8 kts 69°
2026-05-04 16:00 50.04356 8.57230 367 ft 6 kts 69°
2026-05-04 16:00 50.04375 8.57309 362 ft 11 kts 70°
2026-05-04 16:00 50.04413 8.57471 361 ft 17 kts 69°
2026-05-04 16:01 50.04426 8.57598 367 ft 8 kts 109°
2026-05-04 16:01 50.04415 8.57625 365 ft 0 kts 129°
2026-05-04 16:02 50.04349 8.57682 364 ft 22 kts 162°
2026-05-04 16:02 50.04262 8.57647 368 ft 2 kts 250°
2026-05-04 16:02 50.04261 8.57646 368 ft 0 kts 250°
2026-05-04 16:04 50.04261 8.57643 367 ft 3 kts 250°
2026-05-04 16:04 50.03917 8.56177 356 ft 135 kts 249°
2026-05-04 16:04 50.03528 8.54609 510 ft 166 kts 251°
2026-05-04 16:05 50.03105 8.52930 1215 ft 167 kts 250°
2026-05-04 16:05 50.02698 8.51240 2001 ft 166 kts 249°
2026-05-04 16:05 50.00643 8.49111 2776 ft 210 kts 199°
2026-05-04 16:06 49.99219 8.48467 3413 ft 215 kts 199°
2026-05-04 16:06 49.95419 8.46754 5618 ft 217 kts 197°
2026-05-04 16:07 49.93387 8.45826 6354 ft 236 kts 196°
2026-05-04 16:07 49.90645 8.43307 7766 ft 244 kts 236°
2026-05-04 16:08 49.90509 8.42952 7906 ft 244 kts 241°
2026-05-04 16:08 49.92179 8.35915 10324 ft 284 kts 332°
2026-05-04 16:09 49.96129 8.33344 10830 ft 332 kts 334°
2026-05-04 16:09 49.99824 8.30953 11328 ft 363 kts 335°
2026-05-04 16:10 50.02341 8.29602 11993 ft 370 kts 345°
2026-05-04 16:11 50.09251 8.30080 13903 ft 384 kts 18°
2026-05-04 16:11 50.11789 8.31418 14528 ft 387 kts 18°
2026-05-04 16:12 50.26564 8.39158 17806 ft 411 kts 18°
2026-05-04 16:12 50.43190 8.48185 20861 ft 431 kts 18°
2026-05-04 16:13 50.54730 8.54126 22721 ft 441 kts 15°
2026-05-04 16:13 50.66666 8.59690 24315 ft 452 kts 15°
2026-05-04 16:14 50.78756 8.65936 25742 ft 464 kts 25°
2026-05-04 16:14 50.88200 8.79855 27051 ft 475 kts 53°
2026-05-04 16:15 51.00343 9.05289 28873 ft 489 kts 54°
2026-05-04 16:16 51.08865 9.22363 30144 ft 495 kts 42°
2026-05-04 16:16 51.27608 9.33830 32668 ft 482 kts
2026-05-04 16:17 51.40717 9.38439 32975 ft 480 kts
2026-05-04 16:18 51.66850 9.47605 32983 ft 481 kts
2026-05-04 16:19 51.86255 9.55998 32961 ft 489 kts 25°
2026-05-04 16:19 51.94801 9.63134 32964 ft 489 kts 24°
2026-05-04 16:20 52.09962 9.75709 32959 ft 489 kts 24°
2026-05-04 16:22 52.25140 9.88202 32821 ft 489 kts 16°
2026-05-04 16:22 52.34905 9.92740 32058 ft 487 kts 11°
2026-05-04 16:23 52.44785 9.97090 31286 ft 492 kts 10°
2026-05-04 16:24 52.58164 10.02993 28133 ft 499 kts 11°
2026-05-04 16:25 52.64783 10.05972 26741 ft 488 kts 11°
2026-05-04 16:26 52.77637 10.11513 24018 ft 465 kts
2026-05-04 16:26 52.87090 10.12072 22079 ft 444 kts 357°
2026-05-04 16:27 52.93153 10.12286 20968 ft 432 kts 357°
2026-05-04 16:28 53.02014 10.12585 19426 ft 419 kts 357°
2026-05-04 16:28 53.10119 10.12883 18820 ft 352 kts 357°
2026-05-04 16:29 53.19444 10.13172 16556 ft 326 kts 357°
2026-05-04 16:30 53.26143 10.13381 14898 ft 316 kts 357°
2026-05-04 16:31 53.30504 10.13524 13889 ft 310 kts 358°
2026-05-04 16:31 53.36894 10.13737 12235 ft 302 kts 358°
2026-05-04 16:32 53.43076 10.13406 10527 ft 293 kts 352°
2026-05-04 16:33 53.47122 10.12891 9352 ft 289 kts 352°
2026-05-04 16:33 53.51078 10.12391 8261 ft 285 kts 352°
2026-05-04 16:34 53.54936 10.11904 7813 ft 261 kts 352°
2026-05-04 16:34 53.56719 10.11851 7645 ft 255 kts
2026-05-04 16:35 53.61023 10.16781 6851 ft 259 kts 48°
2026-05-04 16:35 53.64505 10.23804 5521 ft 257 kts 48°
2026-05-04 16:36 53.65642 10.26099 5090 ft 253 kts 47°
2026-05-04 16:36 53.67865 10.30595 4223 ft 246 kts 48°
2026-05-04 16:37 53.70313 10.34317 3407 ft 230 kts 12°
2026-05-04 16:37 53.71811 10.34316 3267 ft 207 kts 337°
2026-05-04 16:37 53.73736 10.31314 3056 ft 187 kts 306°
2026-05-04 16:38 53.74440 10.27260 3031 ft 178 kts 275°
2026-05-04 16:39 53.74042 10.21240 3018 ft 179 kts 236°
2026-05-04 16:39 53.72462 10.17999 2773 ft 179 kts 233°
2026-05-04 16:40 53.70909 10.14834 2316 ft 171 kts 233°
2026-05-04 16:40 53.69402 10.11761 1871 ft 171 kts 233°
2026-05-04 16:41 53.67870 10.08642 1391 ft 173 kts 233°
2026-05-04 16:41 53.65797 10.04431 749 ft 144 kts 234°
2026-05-04 16:42 53.63893 10.00580 173 ft 142 kts 233°
2026-05-04 16:43 53.62984 9.98696 45 ft 64 kts 230°
2026-05-04 16:43 53.62757 9.98377 43 ft 23 kts 180°
2026-05-04 16:43 53.62688 9.98450 47 ft 0 kts 142°
2026-05-04 16:44 53.62817 9.98824 47 ft 21 kts 53°
2026-05-04 16:45 53.62977 9.99133 47 ft 13 kts 50°
2026-05-04 16:46 53.63072 9.99334 47 ft 0 kts 53°
2026-05-04 16:47 53.63093 9.99383 47 ft 7 kts 54°
2026-05-04 16:47 53.63203 9.99627 48 ft 15 kts 51°
2026-05-04 16:48 53.63406 10.00016 48 ft 13 kts 50°
2026-05-04 16:48 53.63426 10.00128 45 ft 13 kts 111°
2026-05-04 16:49 53.63326 10.00297 48 ft 3 kts 81°
2026-05-04 16:49 53.63330 10.00335 46 ft 1 kts 83°
2026-05-04 16:50 53.63330 10.00339 48 ft 0 kts 83°